Weather in Riga

Latvia     56˚56′48″N   24˚06′21″E
temp.,
°C
wind,
m/s
gust,
m/s
humid.,
%
clouds,
%
prec.,
mm/h
press.,
hPa
HPBL,
m
27 november, fri
fri2723:00+7˚sw4991100 1.8 1008477
02:00+7˚nne61082100 3.9 1008658
05:00+7˚n7107999 0.1 1009794
08:00+6˚nnw8107277 0.2 10101135
11:00+4˚nnw91176100 0.3 10121081
14:00+3˚n6982100 0.6 1012905
17:00+3˚n6978100 0.4 1013954
20:00+3˚nne6869100 0.8 10151032
28 november, sat
sat2823:00+2˚ne587991 0.1 1016638
02:00+2˚ne588092 0.1 1018664
05:00+3˚ne5978100 0.1 1019844
08:00+3˚nne7982100 0.1 1020681
11:00+3˚ne698047 0.0 1021784
14:00+4˚nne699173 0.1 1021688
17:00+3˚ene5879100 0.1 1022794
20:00+3˚ene5875100 0.2 1023756
29 november, sun
sun2923:00+2˚ene588297 0.0 1024609
02:00+1˚ene479199 0.1 1024464
05:00+1˚ene3689100 0.1 1024394
08:00e479299 0.1 1025327
11:00+2˚ene367887 0.0 1025454
14:00+2˚ene347388 0.1 1025611
17:00+1˚ene468198 0.0 1024408
20:00ene357960 0.0 1024338
30 november, mon
mon3023:00+2˚nne247499 0.0 1023519
02:00+2˚nne468099 0.1 1022579
05:00+2˚n5783100 0.1 1020603
08:00+2˚nnw6895100 0.8 1020648
11:00+2˚nw5796100 0.4 1020488
14:00+2˚wnw5886100 1.1 1020705
17:00+1˚wsw61081100 0.1 1019601
20:00ssw5984100 0.1 1020463
1 december, tue
tue123:00s6109295 0.0 1020435
02:00+1˚s6119798 0.4 1019511
05:00+1˚s81396100 0.4 1018618
08:00+1˚s81489100 0.5 1018667
11:00+1˚s71395100 0.3 1019603
14:00+2˚s71084100 0.3 1021789
17:00+1˚s61088100 0.0 1022618
20:00+1˚s6993100 0.1 1024537